User: anonymous   Login
Location: Mentone
(34.5413°N, 85.5351°W)
Time: 03:27:57
(UTC-06:00)
Language:

Cosmos 2026 Rocket - Orbit

View from above orbital plane
View from above orbital plane
View from above satellite
View from above satellite

Ground track
Ground track

The orbit data is extracted from the following two-line orbital elements,

1 20046U 89042B   17053.43276889 -.00000036  00000-0 -50476-4 0  9995
2 20046  82.9374  28.7113 0042891  31.9824 328.3923 13.78089785393449
Epoch (UTC): 22 February 2017 10:23:11
Eccentricity: 0.0042891
inclination: 82.9374°
perigee height: 939 km
apogee height: 1002 km
right ascension of ascending node: 28.7113°
argument of perigee: 31.9824°
revolutions per day: 13.78089785
mean anomaly at epoch: 328.3923°
orbit number at epoch: 39344

The dashed part of the orbit path shows where the satellite is in the earth's shadow,  

DLR